EUTELSAT 8 WEST B

Last updated on Sun Apr 12 2026 00:02:53 GMT+0000 (Coordinated Universal Time)

1 40875U 15039B 26101.37650309 -.00000064 00000+0 00000+0 0 9994 2 40875 0.0689 357.1686 0003903 22.3670 307.6125 1.00271415 38983
UTC large
Height (km)
Speed (km/s)
/
Latitude / Longitude
Inclination (degrees)
Orbital Period (minutes)
Azimuth
Elevation
Range (km)
Doppler Factor

Next 0 passes for location: London (51.5072 / 0.1276)

Sorry there are no passes over London.
EUTELSAT 8 WEST B